Location: Hope
(40.9110°N, 74.9680°W)
Time: 04:31:44
(UTC-04:00)

Hubble Space Telescope - Visible Passes

Search period start: 21 September 2018 00:00
Search period end: 01 October 2018 00:00
Orbit: 537 x 541 km, 28.5° (Epoch: 20 September)

Date Brightness Start Highest point End Pass type
(mag) Time Alt. Az. Time Alt. Az. Time Alt. Az.
21 Sep 2.9 20:04:55 10° SW 20:07:10 14° S 20:09:00 11° SSE visible
22 Sep 3.0 19:54:28 10° SW 19:56:40 14° S 19:58:51 10° SSE visible
23 Sep 3.1 19:44:06 10° SW 19:46:09 13° S 19:48:12 10° SSE visible
24 Sep 3.2 19:33:50 10° SW 19:35:38 13° S 19:37:26 10° SSE visible
25 Sep 3.3 19:23:43 10° SSW 19:25:06 11° SSW 19:26:29 10° S visible
